Location: Unspecified
(0.0000°N, 0.0000°E)
Time: 02:44:07
(UTC+02:00)

Ariane H10 - Visible Passes

Search period start: 22 April 2018 00:00
Search period end: 02 May 2018 00:00
Orbit: 400 x 35052 km, 3.9° (Epoch: 21 April)

Date Brightness Start Highest point End Pass type
(mag) Time Alt. Az. Time Alt. Az. Time Alt. Az.
22 Apr 6.1 15:12:11 10° W 16:54:47 48° W 00:34:22 44° W visible
23 Apr 6.2 11:31:52 10° W 20:50:00 84° S 21:16:01 22° E visible
25 Apr 6.4 15:44:36 10° W 17:22:13 39° W 01:00:01 31° W visible
26 Apr 5.9 11:59:14 10° W 21:25:20 84° S 21:41:39 32° E visible
28 Apr 5.0 05:08:25 16° ENE 05:08:25 16° ENE 05:10:01 10° E visible
28 Apr 9.5 16:19:52 10° W 17:49:07 30° W 21:21:16 10° W visible
29 Apr 6.7 01:16:49 10° W 01:25:39 19° W 01:25:39 19° W visible
29 Apr 5.6 12:26:53 10° W 14:07:35 88° WSW 22:07:14 44° E visible
01 May 3.8 05:33:42 36° ENE 05:33:42 36° ENE 05:39:24 10° E visible
01 May 10.0 17:00:49 10° W 18:15:32 21° W 20:36:25 10° W visible
